User: anonymous   Login
Location: Unspecified
(0.0000°N, 0.0000°E)
Time: 07:32:20
(UTC+00:00)
Language:

TMSAT-1 - Orbit

View from above orbital plane
View from above orbital plane
View from above satellite
View from above satellite

Ground track
Ground track

The orbit data is extracted from the following two-line orbital elements,

1 25396U 98043C   20336.55892030 +.00000041 +00000-0 +36956-4 0  9993
2 25396 098.7250 276.9666 0001608 248.4540 111.6468 14.24565266163785
Epoch (UTC): 01 December 2020 13:24:50
Eccentricity: 0.0001608
inclination: 98.7250°
perigee height: 809 km
apogee height: 811 km
right ascension of ascending node: 276.9666°
argument of perigee: 248.4540°
revolutions per day: 14.24565266
mean anomaly at epoch: 111.6468°
orbit number at epoch: 16378

The dashed part of the orbit path shows where the satellite is in the earth's shadow,  

DLR